• In Russia
  • List of Countries
  • For 7 days
  • Water Temperature
  • Satellite Maps
  • Weather Map
  • Weather Widgets
  • user-avatar
    Login

    Hourly Weather Tarin Kowt

    Today, 12 December, Wednesday

    Time Temperature Precipitation Wind Pressure Humidity
    00:00 +3°C° 0 mm 0 mps 615 mmHg 52%
    01:00 +2°C° 0 mm 0 mps 615 mmHg 53%
    02:00 +2°C° 0 mm 0 mps 615 mmHg 53%
    03:00 +3°C° 0 mm 1 mps 615 mmHg 53%
    04:00 +3°C° 0 mm 1 mps 615 mmHg 53%
    05:00 +2°C° 0 mm 1 mps 615 mmHg 52%
    06:00 +2°C° 0 mm 1 mps 616 mmHg 52%
    07:00 +2°C° 0 mm 1 mps 616 mmHg 51%
    08:00 +4°C° 0 mm 1 mps 617 mmHg 46%
    09:00 +5°C° 0 mm 1 mps 618 mmHg 40%
    10:00 +7°C° 0 mm 1 mps 619 mmHg 35%
    11:00 +8°C° 0 mm 1 mps 618 mmHg 33%
    12:00 +8°C° 0 mm 1 mps 618 mmHg 31%
    13:00 +9°C° 0 mm 1 mps 618 mmHg 29%
    14:00 +9°C° 0 mm 1 mps 618 mmHg 29%
    15:00 +9°C° 0 mm 1 mps 618 mmHg 29%
    16:00 +9°C° 0 mm 1 mps 618 mmHg 30%
    17:00 +8°C° 0 mm 1 mps 618 mmHg 33%
    18:00 +7°C° 0 mm 1 mps 618 mmHg 37%
    19:00 +5°C° 0 mm 0 mps 618 mmHg 41%
    20:00 +4°C° 0 mm 0 mps 618 mmHg 42%
    21:00 +4°C° 0 mm 0 mps 618 mmHg 44%
    22:00 +3°C° 0 mm 0 mps 618 mmHg 45%
    23:00 +3°C° 0 mm 0 mps 618 mmHg 46%

    Tomorrow, 13 December, Thursday

    Time Temperature Precipitation Wind Pressure Humidity
    00:00 +2°C° 0 mm 0 mps 618 mmHg 47%
    01:00 +2°C° 0 mm 0 mps 618 mmHg 48%
    02:00 +2°C° 0 mm 0 mps 617 mmHg 48%
    03:00 +1°C° 0 mm 0 mps 617 mmHg 48%
    04:00 +1°C° 0 mm 0 mps 617 mmHg 49%
    05:00 +1°C° 0 mm 0 mps 617 mmHg 47%
    06:00 +1°C° 0 mm 0 mps 618 mmHg 46%
    07:00 +2°C° 0 mm 1 mps 618 mmHg 45%
    08:00 +3°C° 0 mm 0 mps 619 mmHg 40%
    09:00 +5°C° 0 mm 0 mps 620 mmHg 34%
    10:00 +7°C° 0 mm 0 mps 621 mmHg 28%
    11:00 +8°C° 0 mm 1 mps 620 mmHg 27%
    12:00 +9°C° 0 mm 1 mps 620 mmHg 25%
    13:00 +10°C° 0 mm 1 mps 620 mmHg 24%
    14:00 +10°C° 0 mm 1 mps 620 mmHg 25%
    15:00 +10°C° 0 mm 1 mps 619 mmHg 26%
    16:00 +9°C° 0 mm 1 mps 619 mmHg 27%
    17:00 +8°C° 0 mm 1 mps 619 mmHg 30%
    18:00 +7°C° 0 mm 1 mps 619 mmHg 34%
    19:00 +5°C° 0 mm 0 mps 619 mmHg 37%
    20:00 +4°C° 0 mm 0 mps 619 mmHg 38%
    21:00 +4°C° 0 mm 0 mps 618 mmHg 40%
    22:00 +3°C° 0 mm 0 mps 618 mmHg 41%
    23:00 +3°C° 0 mm 0 mps 618 mmHg 41%

    Day after tomorrow, 14 December, Friday

    Time Temperature Precipitation Wind Pressure Humidity
    00:00 +2°C° 0 mm 0 mps 618 mmHg 41%
    01:00 +2°C° 0 mm 0 mps 618 mmHg 42%
    02:00 +2°C° 0 mm 0 mps 617 mmHg 41%
    03:00 +3°C° 0 mm 1 mps 617 mmHg 41%
    04:00 +2°C° 0 mm 1 mps 617 mmHg 40%
    05:00 +2°C° 0 mm 1 mps 617 mmHg 39%
    06:00 +2°C° 0 mm 1 mps 617 mmHg 39%
    07:00 +2°C° 0 mm 1 mps 618 mmHg 38%
    08:00 +5°C° 0 mm 1 mps 619 mmHg 32%
    09:00 +7°C° 0 mm 1 mps 620 mmHg 27%
    10:00 +8°C° 0 mm 0 mps 621 mmHg 22%
    11:00 +9°C° 0 mm 0 mps 621 mmHg 20%
    12:00 +9°C° 0 mm 0 mps 620 mmHg 19%
    13:00 +10°C° 0 mm 0 mps 620 mmHg 18%
    14:00 +11°C° 0 mm 1 mps 620 mmHg 20%
    15:00 +11°C° 0 mm 1 mps 620 mmHg 21%
    16:00 +10°C° 0 mm 1 mps 620 mmHg 23%
    17:00 +9°C° 0 mm 1 mps 619 mmHg 26%
    18:00 +6°C° 0 mm 0 mps 619 mmHg 29%
    19:00 +5°C° 0 mm 0 mps 619 mmHg 31%
    20:00 +5°C° 0 mm 0 mps 619 mmHg 32%
    21:00 +4°C° 0 mm 0 mps 619 mmHg 32%
    22:00 +4°C° 0 mm 0 mps 619 mmHg 33%
    23:00 +3°C° 0 mm 0 mps 618 mmHg 33%

    15 December, Saturday

    Time Temperature Precipitation Wind Pressure Humidity
    00:00 +3°C° 0 mm 0 mps 618 mmHg 33%
    01:00 +4°C° 0 mm 1 mps 618 mmHg 33%
    02:00 +4°C° 0 mm 1 mps 617 mmHg 33%
    03:00 +3°C° 0 mm 1 mps 617 mmHg 33%
    04:00 +3°C° 0 mm 1 mps 617 mmHg 33%
    05:00 +3°C° 0 mm 1 mps 617 mmHg 32%
    06:00 +3°C° 0 mm 1 mps 618 mmHg 32%
    07:00 +3°C° 0 mm 1 mps 618 mmHg 31%
    08:00 +5°C° 0 mm 1 mps 619 mmHg 26%
    09:00 +8°C° 0 mm 1 mps 620 mmHg 22%
    10:00 +10°C° 0 mm 1 mps 621 mmHg 17%
    11:00 +11°C° 0 mm 1 mps 621 mmHg 16%
    12:00 +10°C° 0 mm 0 mps 621 mmHg 15%
    13:00 +11°C° 0 mm 0 mps 620 mmHg 14%
    14:00 +10°C° 0 mm 0 mps 620 mmHg 16%
    15:00 +10°C° 0 mm 0 mps 620 mmHg 18%
    16:00 +9°C° 0 mm 0 mps 620 mmHg 21%
    17:00 +8°C° 0 mm 0 mps 620 mmHg 22%
    18:00 +7°C° 0 mm 0 mps 619 mmHg 24%
    19:00 +5°C° 0 mm 0 mps 619 mmHg 26%
    20:00 +5°C° 0 mm 0 mps 619 mmHg 26%
    21:00 +5°C° 0 mm 0 mps 619 mmHg 27%
    22:00 +4°C° 0 mm 0 mps 619 mmHg 27%
    23:00 +4°C° 0 mm 0 mps 619 mmHg 27%

    16 December, Sunday

    Time Temperature Precipitation Wind Pressure Humidity
    00:00 +3°C° 0 mm 0 mps 618 mmHg 27%
    01:00 +4°C° 0 mm 1 mps 618 mmHg 27%
    02:00 +4°C° 0 mm 1 mps 618 mmHg 27%
    03:00 +4°C° 0 mm 1 mps 618 mmHg 27%
    04:00 +3°C° 0 mm 1 mps 618 mmHg 27%
    05:00 +3°C° 0 mm 1 mps 618 mmHg 27%
    06:00 +3°C° 0 mm 1 mps 618 mmHg 26%
    07:00 +3°C° 0 mm 1 mps 618 mmHg 26%
    08:00 +6°C° 0 mm 1 mps 620 mmHg 22%
    09:00 +8°C° 0 mm 1 mps 621 mmHg 19%
    10:00 +10°C° 0 mm 1 mps 622 mmHg 15%
    11:00 +11°C° 0 mm 1 mps 622 mmHg 14%
    12:00 +10°C° 0 mm 0 mps 621 mmHg 13%
    13:00 +11°C° 0 mm 0 mps 621 mmHg 13%
    14:00 +11°C° 0 mm 1 mps 621 mmHg 14%
    15:00 +11°C° 0 mm 1 mps 620 mmHg 16%
    16:00 +10°C° 0 mm 1 mps 620 mmHg 18%
    17:00 +9°C° 0 mm 1 mps 620 mmHg 19%
    18:00 +8°C° 0 mm 1 mps 620 mmHg 21%
    19:00 +6°C° 0 mm 1 mps 619 mmHg 23%
    20:00 +5°C° 0 mm 0 mps 619 mmHg 24%
    21:00 +4°C° 0 mm 0 mps 619 mmHg 24%
    22:00 +4°C° 0 mm 0 mps 619 mmHg 25%
    23:00 +3°C° 0 mm 0 mps 619 mmHg 25%

    17 December, Monday

    Time Temperature Precipitation Wind Pressure Humidity
    00:00 +3°C° 0 mm 0 mps 618 mmHg 25%
    01:00 +3°C° 0 mm 0 mps 618 mmHg 26%
    02:00 +2°C° 0 mm 0 mps 618 mmHg 26%
    03:00 +2°C° 0 mm 0 mps 618 mmHg 26%
    04:00 +3°C° 0 mm 1 mps 617 mmHg 25%
    05:00 +2°C° 0 mm 0 mps 618 mmHg 25%
    06:00 +2°C° 0 mm 0 mps 618 mmHg 25%
    07:00 +1°C° 0 mm 0 mps 618 mmHg 25%
    08:00 +4°C° 0 mm 0 mps 619 mmHg 21%
    09:00 +6°C° 0 mm 0 mps 621 mmHg 18%
    10:00 +8°C° 0 mm 0 mps 622 mmHg 14%
    11:00 +10°C° 0 mm 1 mps 621 mmHg 14%
    12:00 +11°C° 0 mm 1 mps 621 mmHg 14%
    13:00 +11°C° 0 mm 1 mps 621 mmHg 14%
    14:00 +11°C° 0 mm 1 mps 621 mmHg 16%
    15:00 +11°C° 0 mm 1 mps 620 mmHg 18%
    16:00 +10°C° 0 mm 1 mps 620 mmHg 20%
    17:00 +9°C° 0 mm 1 mps 620 mmHg 23%
    18:00 +8°C° 0 mm 1 mps 620 mmHg 26%
    19:00 +6°C° 0 mm 1 mps 619 mmHg 29%
    20:00 +6°C° 0 mm 1 mps 619 mmHg 30%
    21:00 +4°C° 0 mm 0 mps 619 mmHg 31%
    22:00 +4°C° 0 mm 0 mps 619 mmHg 32%
    23:00 +3°C° 0 mm 0 mps 619 mmHg 33%
    Show more